Location: Dos Palmas
(32.4468°N, 116.8732°W)
Time: 02:25:17
(UTC+00:00)

MetOp-B - Pass Details

Date: 20 June 2021
Orbit: 820 x 820 km, 98.7° (Epoch: 27 July)

Event Time Altitude Azimuth Distance (km) Brightness Sun altitude
Exits shadow 04:33:42 29° 141° (SE) 1,475 4.9 -17.2°
Maximum altitude 04:36:21 58° 74° (ENE) 952 4.3 -17.6°
Drops below altitude 10° 04:41:36 10° 356° (N) 2,420 7.3 -18.4°
Sets 04:43:59 0° 353° (N) 3,356 8.2 -18.8°
